Location: Clanezzo
(45.7500°N, 9.6000°E)
Time: 14:04:49
(UTC+00:00)

Cosmos 489 Rocket - Pass Details

Date: 12 May 2021
Orbit: 952 x 983 km, 74.0° (Epoch: 19 June)

Event Time Altitude Azimuth Distance (km) Brightness Sun altitude
Rises 22:26:13 0° 336° (NNW) 3,646 8.8 -24.8°
Reaches altitude 10° 22:28:45 10° 334° (NNW) 2,699 7.8 -24.9°
Maximum altitude 22:34:57 70° 253° (WSW) 1,024 4.5 -25.1°
Enters shadow 22:36:08 56° 197° (SSW) 1,132 4.5 -25.2°
